This is the latest recevied weather packets stored in our database for station/object SP1BMW-13. If no packets are shown the sender has not sent any weather packets the latest 10 day(s).
| Time | Temp. | Humidity | Pressure | Rain* | Wind** | Luminosity | Snow |
|---|---|---|---|---|---|---|---|
| 1788023252 | 22.78° C | 54% | 1009.8 hPa | 0 mm | 0.45 m/s, 297° | 22 W/m² | - |
| 1788023197 | 22.78° C | 53% | 1009.8 hPa | 0 mm | 0.45 m/s, 262° | 23 W/m² | - |
| 1788023132 | 22.78° C | 54% | 1009.9 hPa | 0 mm | 0 m/s | 25 W/m² | - |
| 1788023072 | 22.78° C | 53% | 1010 hPa | 0 mm | 0.45 m/s, 287° | 27 W/m² | - |
| 1788023018 | 22.78° C | 54% | 1009.9 hPa | 0 mm | 0 m/s | 28 W/m² | - |
| 1788022952 | 22.78° C | 53% | 1009.8 hPa | 0 mm | 0.45 m/s, 278° | 31 W/m² | - |
| 1788022895 | 22.78° C | 53% | 1009.9 hPa | 0 mm | 0.45 m/s, 267° | 32 W/m² | - |
| 1788022832 | 22.78° C | 53% | 1009.9 hPa | 0 mm | 0 m/s | 35 W/m² | - |
| 1788022781 | 22.78° C | 53% | 1009.8 hPa | 0 mm | 0 m/s | 37 W/m² | - |
| 1788022712 | 22.78° C | 54% | 1009.8 hPa | 0 mm | 0 m/s | 40 W/m² | - |
| 1788022652 | 22.78° C | 53% | 1009.6 hPa | 0 mm | 0 m/s | 42 W/m² | - |
| 1788022592 | 22.78° C | 53% | 1009.8 hPa | 0 mm | 0 m/s | 47 W/m² | - |
| 1788022532 | 22.78° C | 52% | 1009.8 hPa | 0 mm | 0.45 m/s, 233° | 51 W/m² | - |
| 1788022472 | 22.78° C | 53% | 1009.9 hPa | 0 mm | 0 m/s | 55 W/m² | - |
| 1788022412 | 22.78° C | 53% | 1009.7 hPa | 0 mm | 0 m/s | 57 W/m² | - |
| 1788022352 | 22.78° C | 53% | 1009.8 hPa | 0 mm | 0 m/s | 59 W/m² | - |
| 1788022292 | 22.78° C | 54% | 1009.7 hPa | 0 mm | 0 m/s | 60 W/m² | - |
| 1788022232 | 22.78° C | 53% | 1009.8 hPa | 0 mm | 0 m/s | 59 W/m² | - |
| 1788022172 | 22.78° C | 53% | 1009.8 hPa | 0 mm | 0.45 m/s, 357° | 57 W/m² | - |
| 1788022112 | 22.78° C | 52% | 1009.7 hPa | 0 mm | 0 m/s | 54 W/m² | - |
| 1788022052 | 22.78° C | 52% | 1009.7 hPa | 0 mm | 0.89 m/s, 298° | 51 W/m² | - |
| 1788021992 | 23.33° C | 52% | 1009.7 hPa | 0 mm | 0 m/s | 49 W/m² | - |
| 1788021932 | 23.33° C | 52% | 1009.9 hPa | 0 mm | 0 m/s | 48 W/m² | - |
| 1788021873 | 23.33° C | 52% | 1009.8 hPa | 0 mm | 0.45 m/s, 176° | 48 W/m² | - |
| 1788021812 | 23.33° C | 52% | 1009.9 hPa | 0 mm | 0.45 m/s, 311° | 50 W/m² | - |
* Rain latest hour (hover to see other rain measurements)
** Current wind speed in m/s (hover to see current wind gust speed)